GW0843 Weather Reports


time (UTC)temp
C
wind
direction
speed
KPH
gust
KPH
rain 1hr
cm
rain 24hr
cm
rain mn
cm
humidity
%
barometer
mb
20260506201449 0 104 0.0 0.0 0.00 0.00 0.00 77 1020.4
20260506200448 0 104 0.0 0.0 0.00 0.00 0.00 77 1020.5
20260506195448 0 103 0.0 0.0 0.00 0.00 0.00 80 1020.7
20260506194448 0 104 0.0 0.0 0.00 0.00 0.00 78 1020.5
20260506193448 0 104 0.0 0.0 0.00 0.00 0.00 81 1021.0
20260506192447 -1 104 0.0 0.0 0.00 0.00 0.00 82 1020.9
20260506191446 0 104 0.0 0.0 0.00 0.00 0.00 81 1021.0
20260506190445 0 104 0.0 0.0 0.00 0.00 0.00 80 1020.7
20260506185445 0 104 0.0 0.0 0.00 0.00 0.00 76 1021.0
20260506184445 0 104 0.0 0.0 0.00 0.00 0.00 80 1021.0
20260506183443 -1 104 0.0 0.0 0.00 0.00 0.00 79 1021.0
20260506182438 0 104 0.0 0.0 0.00 0.00 0.00 75 1021.2
20260506181433 0 102 0.0 0.0 0.00 0.00 0.00 74 1021.3
20260506180431 0 99 0.0 0.0 0.00 0.00 0.00 73 1021.4
20260506175431 0 100 0.0 0.0 0.00 0.00 0.00 74 1021.3
20260506174426 0 97 0.0 0.0 0.00 0.00 0.00 76 1021.3
20260506173425 0 98 0.0 0.0 0.00 0.00 0.00 75 1021.5
20260506172425 0 98 0.0 0.0 0.00 0.00 0.00 77 1021.5
20260506171425 -1 96 0.0 0.0 0.00 0.00 0.00 81 1021.5
20260506170425 -1 96 0.0 0.0 0.00 0.00 0.00 80 1021.5
20260506165422 -1 97 0.0 0.0 0.00 0.00 0.00 79 1021.5
20260506164420 -1 96 0.0 0.0 0.00 0.00 0.00 80 1021.3
20260506163419 -2 96 0.0 0.0 0.00 0.00 0.00 81 1021.2
20260506162418 -2 96 0.0 0.0 0.00 0.00 0.00 82 1020.9
20260506161413 -2 96 0.0 0.0 0.00 0.00 0.00 81 1020.9
20260506160414 -1 96 0.0 0.0 0.00 0.00 0.00 80 1021.2
20260506155408 -2 96 0.0 0.0 0.00 0.00 0.00 81 1021.2
20260506153530 -2 97 0.0 0.0 0.00 0.00 0.00 83 1021.0
20260506152530 -1 97 0.0 0.0 0.00 0.00 0.00 83 1020.7
20260506151526 -2 98 0.0 0.0 0.00 0.00 0.00 84 1020.8
20260506150525 -2 99 0.0 0.0 0.00 0.00 0.00 87 1020.9
20260506145525 -3 99 0.0 0.0 0.00 0.00 0.00 92 1020.7
20260506144524 -3 98 0.0 0.0 0.00 0.00 0.00 93 1020.7
20260506143520 -3 98 0.0 0.0 0.00 0.00 0.00 91 1020.7
20260506142515 -3 98 0.0 0.0 0.00 0.00 0.00 90 1020.7
20260506141511 -3 98 0.0 0.0 0.00 0.00 0.00 88 1020.5
20260506140506 -3 99 0.0 0.0 0.00 0.00 0.00 90 1020.7
20260506135506 -3 98 0.0 0.0 0.00 0.00 0.00 90 1020.5
20260506134503 -3 98 0.0 0.0 0.00 0.00 0.00 90 1020.9
20260506133503 -3 98 0.0 0.0 0.00 0.00 0.00 90 1020.5
20260506132502 -3 98 0.0 0.0 0.00 0.00 0.00 89 1020.3
20260506131457 -3 98 0.0 0.0 0.00 0.00 0.00 90 1020.2
20260506130456 -3 98 0.0 0.0 0.00 0.00 0.00 91 1019.9
20260506125452 -4 98 0.0 0.0 0.00 0.00 0.00 92 1019.8
20260506124447 -4 98 0.0 0.0 0.00 0.00 0.00 93 1019.9
20260506123442 -4 98 0.0 0.0 0.00 0.00 0.00 94 1019.7
20260506122442 -4 98 0.0 0.0 0.00 0.00 0.00 94 1019.4
20260506121437 -4 98 0.0 0.0 0.00 0.00 0.00 95 1019.2
20260506120432 -4 98 0.0 0.0 0.00 0.00 0.00 95 1019.2
20260506115427 -4 98 0.0 0.0 0.00 0.00 0.00 95 1019.2
20260506114422 -4 98 0.0 0.0 0.00 0.00 0.00 94 1019.1
20260506113418 -4 98 0.0 0.0 0.00 0.00 0.00 94 1018.8
20260506112418 -4 98 0.0 0.0 0.00 0.00 0.00 93 1019.1
20260506111413 -4 98 0.0 0.0 0.00 0.00 0.00 93 1018.9
20260506110414 -4 98 0.0 0.0 0.00 0.00 0.00 94 1018.9
20260506105412 -4 98 0.0 0.0 0.00 0.00 0.00 94 1018.8
20260506104407 -4 98 0.0 0.0 0.00 0.00 0.00 94 1018.7
20260506103402 -4 98 0.0 0.0 0.00 0.00 0.00 96 1018.7
20260506102357 -4 98 0.0 0.0 0.00 0.00 0.00 96 1018.3
20260506101356 -4 98 0.0 0.0 0.00 0.00 0.00 96 1018.6
20260506100352 -4 98 0.0 0.0 0.00 0.00 0.00 95 1018.4
20260506095347 -4 98 0.0 0.0 0.00 0.00 0.00 95 1018.7
20260506094343 -4 98 0.0 0.0 0.00 0.00 0.00 95 1018.6
20260506093343 -4 98 0.0 0.0 0.00 0.00 0.00 96 1018.7
20260506092339 -4 98 0.0 0.0 0.00 0.00 0.00 97 1018.7
20260506091339 -3 98 0.0 0.0 0.00 0.00 0.00 97 1018.7
20260506090339 -3 98 0.0 0.0 0.00 0.00 0.00 97 1018.7
20260506085338 -3 98 0.0 0.0 0.00 0.00 0.00 97 1018.7
20260506084337 -3 98 0.0 0.0 0.00 0.00 0.00 97 1018.3
20260506083337 -3 98 0.0 0.0 0.00 0.00 0.00 96 1018.7
20260506082337 -3 98 0.0 0.0 0.00 0.00 0.00 96 1018.4
20260506081337 -3 98 0.0 0.0 0.00 0.00 0.00 97 1018.6
20260506080337 -3 98 0.0 0.0 0.00 0.00 0.00 97 1018.7
20260506073327 -3 98 0.0 0.0 0.00 0.00 0.00 97 1018.7
20260506072327 -3 98 0.0 0.0 0.00 0.00 0.00 97 1018.9
20260506071323 -3 98 0.0 0.0 0.00 0.00 0.00 97 1018.7
20260506070322 -3 98 0.0 0.0 0.00 0.00 0.00 97 1018.6
20260506062306 -3 98 0.0 0.0 0.00 0.00 0.00 98 1018.6
20260506061304 -3 98 0.0 0.0 0.00 0.00 0.00 98 1018.6
20260506060300 -3 98 0.0 0.0 0.00 0.00 0.00 98 1018.6
20260506051249 -3 98 0.0 0.0 0.00 0.36 0.36 97 1018.4
20260506050244 -3 98 0.0 0.0 0.00 0.36 0.36 98 1018.2
20260506044243 -3 98 0.0 0.0 0.00 0.36 0.36 98 1017.8
20260506043238 -3 98 0.0 0.0 0.00 0.36 0.36 97 1017.6
20260506042235 -2 98 0.0 0.0 0.00 0.36 0.36 97 1018.1
20260506041230 -2 98 0.0 0.0 0.00 0.36 0.36 97 1017.8
20260506040230 -2 98 0.0 0.0 0.00 0.36 0.36 97 1017.5
20260506035229 -2 98 0.0 0.0 0.00 0.36 0.36 97 1017.7
20260506034229 -2 98 0.0 0.0 0.00 0.36 0.36 97 1017.3
20260506033229 -2 98 0.0 0.0 0.00 0.36 0.36 97 1016.8
20260506032229 -2 98 0.0 0.0 0.00 0.36 0.36 97 1016.8
20260506031229 -2 98 0.0 0.0 0.00 0.36 0.36 96 1017.0
20260506030224 -2 99 0.0 0.0 0.00 0.36 0.36 96 1017.0
20260506025223 -2 99 0.0 0.0 0.00 0.36 0.36 96 1016.6
20260506024223 -2 99 0.0 0.0 0.00 0.36 0.36 96 1016.6
20260506023222 -2 99 0.0 0.0 0.00 0.36 0.36 96 1016.2
20260506022217 -2 99 0.0 0.0 0.00 0.36 0.36 96 1016.4
20260506021217 -2 99 0.0 0.0 0.00 0.36 0.36 96 1015.9
20260506020212 -2 99 0.0 0.0 0.00 0.36 0.36 96 1015.9
20260506015212 -1 99 0.0 0.0 0.00 0.36 0.36 96 1015.7
20260506014211 -1 99 0.0 0.0 0.00 0.36 0.36 96 1015.7
20260506013206 -1 99 0.0 0.0 0.00 0.36 0.36 95 1015.2
20260506012204 -1 99 0.0 0.0 0.00 0.36 0.36 95 1015.4
20260506011203 -1 99 0.0 0.0 0.00 0.36 0.36 95 1015.4
20260506010159 -1 99 0.0 0.0 0.00 0.36 0.36 95 1015.5
20260506005159 -1 99 0.0 0.0 0.00 0.36 0.36 95 1015.1
20260506004159 -1 99 0.0 0.0 0.00 0.36 0.36 95 1015.4
20260506003156 -1 99 0.0 0.0 0.00 0.36 0.36 95 1015.4
20260506002154 -1 99 0.0 0.0 0.00 0.36 0.36 94 1015.1
20260506001153 -1 99 0.0 0.0 0.00 0.36 0.36 95 1015.1
20260506000148 -1 99 0.0 0.0 0.00 0.36 0.36 95 1015.1
20260505235148 -1 99 0.0 0.0 0.00 0.36 0.36 95 1015.1
20260505234148 -1 99 0.0 0.0 0.00 0.36 0.36 94 1015.4
20260505233148 -1 100 0.0 0.0 0.00 0.36 0.36 95 1015.2
20260505232143 -1 100 0.0 0.0 0.18 0.36 0.36 94 1015.2
20260505231139 -1 100 0.0 0.0 0.00 0.33 0.33 94 1015.2
20260505230138 -1 100 0.0 0.0 0.00 0.33 0.33 94 1015.5
20260505225137 -1 100 0.0 0.0 0.00 0.33 0.33 95 1015.2
20260505224137 -1 100 0.0 0.0 0.00 0.33 0.33 94 1015.4
20260505223136 -1 101 0.0 0.0 0.00 0.33 0.33 95 1015.2
20260505222134 -1 101 0.0 0.0 0.13 0.33 0.33 95 1015.1
20260505221134 -1 101 0.0 0.0 0.00 0.30 0.30 94 1014.9
20260505220134 -1 101 0.0 0.0 0.00 0.30 0.30 94 1014.5
20260505215130 -1 101 0.0 0.0 0.00 0.30 0.30 94 1014.9
20260505214130 -1 101 0.0 0.0 0.00 0.30 0.30 94 1015.0
20260505213130 -1 102 0.0 0.0 0.00 0.30 0.30 95 1014.7
20260505212130 -1 102 0.0 0.0 0.00 0.30 0.30 95 1014.9
20260505211130 -1 102 0.0 0.0 0.00 0.30 0.30 95 1014.6
20260505210129 -1 102 0.0 0.0 0.18 0.30 0.30 95 1015.1
20260505205125 -1 102 0.0 0.0 0.00 0.28 0.28 95 1015.1
20260505204125 -1 102 0.0 0.0 0.00 0.28 0.28 95 1015.1
20260505203124 -1 102 0.0 0.0 0.00 0.28 0.28 95 1015.4
20260505202122 -1 102 0.0 0.0 0.13 0.28 0.28 94 1015.6